Погода в Кальтовке

Россия / Республика Башкортостан     54°40′47″N   56°36′58″E
темп.,
°C
ветер,
м/с
пор.,
м/с
влажн.,
%
обл.,
%
осадки,
мм/ч
давл.,
гПа
погр.,
м
24 сентября, пт
пт2423:00+8юв3963100 0.0 1025162
02:00+7юв41163100 0.0 1025231
05:00+8юв41061100 0.0 1025212
08:00+9юв41055100 0.0 1025339
11:00+12ююв5943100 0.0 1025670
14:00+12юв4947100 0.0 1024549
17:00+12ююв2648100 0.0 1023144
20:00+11юв4947100 0.0 1022209
25 сентября, сб
сб2523:00+9юв51148100 0.0 1022246
02:00+9юв51045100 0.0 1021254
05:00+10вюв51040100 0.0 1019301
08:00+10вюв51241100 0.0 1017398
11:00+14юв81334100 0.0 1015663
14:00+17юв71027100 0.0 10141127
17:00+15ююв51131100 0.0 1014652
20:00+14ююв71231100 0.1 1015803
26 сентября, вс
вс2623:00+12вюв51245100 0.1 1013482
02:00+11вюв51247100 0.0 1012355
05:00+13вюв61332100 0.0 1010353
08:00+12юв61235100 0.0 1011552
11:00+10юв71368100 0.4 1011558
14:00+10вюв71272100 0.9 1010637
17:00+11вюв51256100 1.1 1011519
20:00+11вюв61249100 0.0 1012521
27 сентября, пн
пн2723:00+10вюв71259100 0.0 1012656
02:00+8вюв5981100 0.4 1012664
05:00+6всв6989100 2.9 1012436
08:00+4всв81377100 0.0 1013478
11:00+6всв9116187 0.0 1014725
14:00+9всв91145100 0.0 10141154
17:00+8в8124398 0.0 10161302
20:00+6всв612435 0.0 1018466
28 сентября, вт
вт2823:00+5всв612550 0.0 1019510
02:00+3св612620 0.0 1020551
05:00+1св712715 0.0 1022641
08:00+2св6106757 0.0 1023866
11:00+5всв794929 0.0 10241286
14:00+8св6741100 0.0 10231506
17:00+8ссв5642100 0.0 10241572
20:00+5ссв51055100 0.0 1025381